Tracking 30157 objects as of 13-Feb-2025
HD Live streaming from Space Station
objects crossing your sky now

COSMOS 1766

Track COSMOS 1766 now!
10-day predictions
COSMOS 1766 is classified as:


NORAD ID: 16881
Int'l Code: 1986-055A
Perigee: 464.6 km
Apogee: 480.0 km
Inclination: 82.5 °
Period: 93.9 minutes
Semi major axis: 6843 km
RCS: 9.3716 m2 (large)
Launch date: July 28, 1986
Source: Commonwealth of Independent States (former USSR) (CIS)
Launch site: PLESETSK MISSILE AND SPACE COMPLEX (PKMTR)
Your satellite tracking list
Your tracking list is empty




NASA's NSSDC Master Catalog

Two Line Element Set (TLE):
1 16881U 86055A   25043.57568238  .00020481  00000-0  62830-3 0  9993
2 16881  82.4991 149.8326 0011213 148.1627 212.0295 15.33567553 83510
Source of the keplerian elements: AFSPC